User: anonymous   Login
Location: Villingen
(48.0639°N, 8.4609°E)
Time: 19:06:18
(UTC+02:00)
Language:

Tiangong 2 - Orbit

View from above orbital plane
View from above orbital plane
View from above satellite
View from above satellite

Ground track
Ground track

The orbit data is extracted from the following two-line orbital elements,

1 41765U 16057A   18175.28614486 -.00001629  00000-0 -15669-4 0  9994
2 41765  42.7835 298.0636 0007998 309.0927 127.9298 15.58896154101137
Epoch (UTC): 24 June 2018 06:52:02
Eccentricity: 0.0007998
inclination: 42.7835°
perigee height: 385 km
apogee height: 396 km
right ascension of ascending node: 298.0636°
argument of perigee: 309.0927°
revolutions per day: 15.58896154
mean anomaly at epoch: 127.9298°
orbit number at epoch: 10113

The dashed part of the orbit path shows where the satellite is in the earth's shadow,  

DLR